698  
NZUS99 KDVN 211610  
HRRRRR  
HOURLY WEATHER ROUNDUP  
NATIONAL WEATHER SERVICE QUAD CITIES IA IL  
1000 AM CST MON JAN 21 2019  
 
NOTE: "FAIR" INDICATES FEW OR NO CLOUDS BELOW 12,000 FEET WITH  
NO SIGNIFICANT WEATHER AND/OR OBSTRUCTIONS TO VISIBILITY.  
------------------------------------------------------------------  
 
CITY SKY/WX TMP DP RH WIND PRES REMARKS  
BURLINGTON CLOUDY 9 1 70 SE10 30.43F WCI -5  
CEDAR RAPIDS CLOUDY 6 1 80 SE13 30.39S WCI -10  
DAVENPORT FAIR 7 0 73 SE15 30.46F WCI -10  
DUBUQUE FAIR 5 -2 72 SE15 30.42S WCI -13  
IOWA CITY CLOUDY 7 0 73 SE9 30.45S WCI -7  
MOLINE FAIR 9 1 70 SE14 30.47F WCI -7  
------------------------------------------------------------------  
THE STATIONS BELOW ARE NOT NWS STATIONS AND ARE NOT SUBJECT TO NWS  
QUALITY CONTROL. SOME STATIONS DO NOT REPORT WEATHER SUCH AS FOG.  
* - STATIONS THAT REPORT TMP AND DP IN WHOLE DEGREES CELSIUS, WHICH  
ARE THEN CONVERTED TO FAHRENHEIT.  
------------------------------------------------------------------  
 
CITY SKY/WX TMP DP RH WIND PRES REMARKS  
CLINTON FAIR 7 2 80 SE15 30.48S WCI -10  
FAIRFIELD * CLOUDY 9 0 66 SE14G20 30.38S WCI -8  
FORT MADISON * CLOUDY 9 1 72 SE9 30.43R WCI -5  
FREEPORT FAIR 0 -5 78 SE6 30.51S WCI -11  
INDEPENDENCE * FAIR 7 1 75 SE12 30.38S WCI -8  
KEOKUK * CLOUDY 9 1 72 SE12G17 30.42R WCI -6  
MACOMB CLOUDY 7 1 75 SE15 30.48F WCI -10  
MONTICELLO * N/A N/A N/A N/A MISG N/A  
MT PLEASANT NOT AVBL  
MUSCATINE * PTSUNNY 9 1 72 SE13G18 30.47R WCI -7  
SAVANNA FAIR 7 0 72 SE12 30.50F WCI -9  
STERLING/R.F. FAIR 10 1 67 SE12 30.52S WCI -5  
VINTON * FAIR 8 1 72 SE10 30.39S WCI -6  
WASHINGTON * CLOUDY 9 1 72 SE13 30.42S WCI -7  
------------------------------------------------------------------  
 
 
CLICK HERE TO GO TO PREVIOUS BULLETINS.

The Nexlab IL Page
The Nexlab IA Page
The Nexlab MO Page Main Text Page